Panama City, FL

7:36 AM CDT on September 30, 2016 (GMT -0500)
Panama City Tyndall AFB

Weather History for KPAM - June, 2013

Change the Weather History Date:

Friday, June 14, 2013

  Actual Average Record
Temperature  
Mean Temperature 83 °F -  
Max Temperature 89 °F 85 °F 94 °F (2011)
Min Temperature 77 °F 71 °F 68 °F (2007)
Cooling Degree Days 18    
Growing Degree Days 33 (Base 50)    
Moisture  
Dew Point 78 °F    
Average Humidity 82    
Maximum Humidity 93    
Minimum Humidity 66    
Precipitation  
Precipitation 0.00 in - - ()
Sea Level Pressure  
Sea Level Pressure 29.88 in    
Wind  
Wind Speed 11 mph (West)    
Max Wind Speed 16 mph    
Max Gust Speed 20 mph    
Visibility 10 miles    
Events      
Averages and records for this station are not official NWS values.
T = Trace of Precipitation, MM = Missing Value Source: NWS Daily Summary

Daily Weather History Graph

Daily Weather History Graph

Search for Another Location

Airport or City:

Trip Planner

Search our weather history database for the weather conditions in past years. The results will help you decide how hot, cold, wet, or windy it might be!

Date:

Astronomy

Jun. 14, 2013 Rise Set
Actual Time 5:40 AM CDT 7:44 PM CDT
Civil Twilight 5:13 AM CDT 8:12 PM CDT
Nautical Twilight 4:39 AM CDT 8:45 PM CDT
Astronomical Twilight 4:04 AM CDT 9:21 PM CDT
Moon 10:54 AM CDT (6/14) 11:43 PM CDT (6/14)
Length of Visible Light 14h 59m
Length of Day
14h 04m
Waxing Crescent, 30% of the Moon is Illuminated
Jun 14
Waxing Crescent
Jun 16
First Quarter
Jun 23
Full
Jun 29
Last Quarter
Jul 8
New

Hourly Weather History & Observations

Time (CDT) Temp. Heat Index Dew Point Humidity Pressure Visibility Wind Dir Wind Speed Gust Speed Precip Events Conditions
12:58 AM 81.5 °F 88.5 °F 76.3 °F 84% 29.91 in 10.0 mi WSW 12.7 mph - N/A   Clear
1:58 AM 81.3 °F 88.3 °F 76.5 °F 85% 29.92 in 10.0 mi West 10.4 mph - N/A   Partly Cloudy
2:58 AM 81.7 °F 89.5 °F 77.0 °F 86% 29.87 in 10.0 mi WSW 10.4 mph - N/A   Clear
3:58 AM 81.7 °F 89.7 °F 77.4 °F 87% 29.87 in 10.0 mi West 10.4 mph - N/A   Clear
4:48 AM 82.4 °F 92.4 °F 78.8 °F 89% 29.85 in 10.0 mi West 10.4 mph - N/A   Mostly Cloudy
4:53 AM 82.4 °F 92.4 °F 78.8 °F 89% 29.85 in 10.0 mi West 11.5 mph - N/A   Scattered Clouds
4:58 AM 81.5 °F 89.7 °F 78.1 °F 89% 29.86 in 10.0 mi West 12.7 mph - N/A   Scattered Clouds
5:38 AM 82.4 °F 92.4 °F 78.8 °F 89% 29.85 in 10.0 mi West 10.4 mph - N/A   Mostly Cloudy
5:59 AM 81.7 °F 90.5 °F 78.6 °F 90% 29.87 in 10.0 mi West 11.5 mph - N/A   Mostly Cloudy
6:19 AM 82.4 °F 92.4 °F 78.8 °F 89% 29.86 in 10.0 mi West 11.5 mph - N/A   Mostly Cloudy
6:58 AM 82.8 °F 93.9 °F 79.7 °F 90% 29.87 in 10.0 mi West 16.1 mph 19.6 mph N/A   Mostly Cloudy
7:43 AM 84.2 °F 98.3 °F 80.6 °F 89% 29.88 in 10.0 mi West 12.7 mph - N/A   Mostly Cloudy
7:58 AM 84.0 °F 96.8 °F 79.7 °F 87% 29.90 in 10.0 mi West 12.7 mph - N/A   Mostly Cloudy
8:36 AM 84.2 °F 98.3 °F 80.6 °F 89% 29.89 in 10.0 mi West 13.8 mph - N/A   Mostly Cloudy
8:38 AM 84.2 °F 98.3 °F 80.6 °F 89% 29.89 in 10.0 mi West 12.7 mph - N/A   Mostly Cloudy
8:43 AM 84.2 °F 98.3 °F 80.6 °F 89% 29.89 in 10.0 mi West 13.8 mph - N/A   Mostly Cloudy
8:58 AM 86.4 °F 101.5 °F 79.9 °F 81% 29.90 in 10.0 mi West 12.7 mph - N/A   Mostly Cloudy
9:58 AM 86.9 °F 97.3 °F 76.1 °F 70% 29.89 in 10.0 mi West 11.5 mph - N/A   Mostly Cloudy
10:58 AM 87.4 °F 98.2 °F 76.1 °F 69% 29.89 in 10.0 mi West 13.8 mph - N/A   Scattered Clouds
11:58 AM 87.8 °F 98.6 °F 75.9 °F 68% 29.89 in 10.0 mi West 15.0 mph - N/A   Partly Cloudy
12:58 PM 89.1 °F 100.8 °F 76.3 °F 66% 29.88 in 10.0 mi WSW 15.0 mph - N/A   Overcast
1:58 PM 88.3 °F 100.0 °F 76.6 °F 68% 29.87 in 10.0 mi West 15.0 mph - N/A   Partly Cloudy
2:58 PM 88.3 °F 100.6 °F 76.8 °F 69% 29.88 in 10.0 mi West 11.5 mph - N/A   Partly Cloudy
3:58 PM 88.0 °F 100.7 °F 77.5 °F 71% 29.87 in 10.0 mi WSW 13.8 mph - N/A   Clear
4:58 PM 87.4 °F 99.8 °F 77.5 °F 72% 29.86 in 10.0 mi West 15.0 mph - N/A   Clear
5:58 PM 86.7 °F 97.3 °F 76.5 °F 71% 29.85 in 10.0 mi WNW 13.8 mph - N/A   Clear
6:58 PM 85.6 °F 95.5 °F 75.9 °F 73% 29.87 in 10.0 mi NW 8.1 mph - N/A   Clear
7:58 PM 82.8 °F 90.4 °F 75.7 °F 79% 29.88 in 10.0 mi WNW 6.9 mph - N/A   Clear
8:58 PM 80.4 °F 86.0 °F 75.6 °F 85% 29.90 in 10.0 mi NW 2.3 mph - N/A   Clear
9:58 PM 78.6 °F - 75.4 °F 90% 29.93 in 10.0 mi Calm Calm - N/A   Clear
10:58 PM 77.0 °F - 74.8 °F 93% 29.94 in 10.0 mi Calm Calm - N/A   Clear
11:58 PM 77.2 °F - 74.8 °F 92% 29.94 in 10.0 mi North 4.6 mph - N/A   Clear